FW4454 Weather Reports


Display with metric or nautical units.
time (UTC)temp
F
wind
direction
speed
MPH
gust
MPH
rain 1hr
in
rain 24hr
in
rain mn
in
humidity
%
barometer
mb
20260507002016 45 0 4.0 9.0 0.00 0.02 0.00 95 1009.5
20260507001016 45 338 3.0 7.0 0.00 0.02 0.00 95 1009.5
20260507000017 45 0 4.0 8.0 0.00 0.02 0.00 95 1009.6
20260506235016 45 315 4.0 8.0 0.00 0.02 0.00 95 1009.5
20260506234016 45 338 3.0 5.0 0.00 0.02 0.00 95 1009.3
20260506233016 45 338 4.0 8.0 0.00 0.02 0.00 95 1009.4
20260506232016 45 0 4.0 10.0 0.00 0.02 0.00 95 1009.3
20260506231017 45 338 4.0 9.0 0.00 0.02 0.00 95 1009.2
20260506230017 45 0 3.0 7.0 0.00 0.02 0.00 95 1009.2
20260506225016 45 338 3.0 8.0 0.00 0.02 0.00 95 1009.2
20260506224038 45 315 3.0 9.0 0.00 0.02 0.00 95 1009.0
20260506223016 45 315 3.0 7.0 0.00 0.02 0.00 95 1008.9
20260506222016 45 315 2.0 5.0 0.00 0.02 0.00 95 1008.8
20260506221016 45 315 1.0 4.0 0.00 0.02 0.00 95 1008.8
20260506220037 45 338 1.0 5.0 0.00 0.02 0.02 95 1008.7
20260506215016 45 338 1.0 4.0 0.00 0.02 0.02 95 1008.7
20260506214016 45 338 2.0 8.0 0.00 0.02 0.02 94 1008.6
20260506213038 45 225 2.0 5.0 0.00 0.02 0.02 94 1008.5
20260506212016 45 315 2.0 6.0 0.00 0.02 0.02 94 1008.5
20260506211016 45 338 2.0 4.0 0.00 0.02 0.02 94 1008.5
20260506210017 45 338 2.0 8.0 0.00 0.02 0.02 94 1008.5
20260506205016 45 338 3.0 9.0 0.00 0.02 0.02 94 1008.4
20260506204018 46 315 4.0 11.0 0.00 0.02 0.02 94 1008.3
20260506203016 46 338 1.0 4.0 0.00 0.02 0.02 94 1008.2
20260506202016 46 315 3.0 11.0 0.00 0.02 0.02 94 1008.1
20260506201016 46 338 5.0 10.0 0.00 0.02 0.02 94 1008.0
20260506200017 46 338 3.0 8.0 0.00 0.02 0.02 94 1007.9
20260506195016 46 338 3.0 9.0 0.00 0.02 0.02 93 1007.9
20260506194017 46 315 5.0 12.0 0.00 0.02 0.02 93 1007.7
20260506193036 47 315 6.0 12.0 0.00 0.02 0.02 93 1007.7
20260506192016 47 338 5.0 13.0 0.00 0.02 0.02 93 1007.6
20260506191016 47 315 5.0 12.0 0.00 0.02 0.02 93 1007.3
20260506190036 47 338 5.0 12.0 0.00 0.02 0.02 92 1007.2
20260506185017 48 338 4.0 12.0 0.00 0.02 0.02 92 1007.1
20260506184016 48 0 3.0 8.0 0.00 0.02 0.02 92 1006.9
20260506183016 48 0 4.0 10.0 0.00 0.02 0.02 92 1006.8
20260506182016 48 338 3.0 9.0 0.00 0.02 0.02 92 1006.8
20260506181016 49 338 2.0 9.0 0.00 0.02 0.02 92 1006.7
20260506180016 49 0 5.0 12.0 0.00 0.02 0.02 92 1006.6
20260506175016 49 315 4.0 10.0 0.00 0.03 0.02 92 1006.6
20260506174018 49 0 4.0 10.0 0.00 0.03 0.02 92 1006.4
20260506173039 49 0 6.0 15.0 0.00 0.03 0.02 92 1006.4
20260506172057 49 0 4.0 10.0 0.00 0.03 0.02 92 1006.4
20260506171018 50 338 4.0 12.0 0.00 0.03 0.02 92 1006.4
20260506170019 50 338 2.0 6.0 0.00 0.04 0.02 92 1006.2
20260506165019 50 338 4.0 9.0 0.00 0.04 0.02 92 1006.2
20260506164017 50 315 2.0 6.0 0.00 0.04 0.02 92 1006.1
20260506163017 50 315 4.0 9.0 0.01 0.04 0.02 93 1006.2
20260506162017 50 315 3.0 9.0 0.01 0.04 0.02 92 1006.2
20260506161017 50 338 2.0 6.0 0.01 0.04 0.02 93 1006.2
20260506160017 50 338 2.0 7.0 0.01 0.04 0.02 92 1006.1
20260506155037 50 338 3.0 8.0 0.01 0.04 0.02 92 1006.1
20260506154017 51 315 4.0 9.0 0.01 0.04 0.02 92 1006.0
20260506153018 51 338 4.0 9.0 0.00 0.03 0.02 92 1006.0
20260506152017 51 315 3.0 9.0 0.00 0.03 0.02 92 1005.9
20260506151017 51 338 3.0 8.0 0.00 0.04 0.02 91 1005.8
20260506150019 52 338 2.0 7.0 0.00 0.04 0.02 91 1005.8
20260506145039 52 315 3.0 9.0 0.00 0.04 0.02 91 1005.7
20260506144017 52 315 5.0 11.0 0.00 0.04 0.02 91 1005.6
20260506143019 53 315 4.0 8.0 0.00 0.05 0.02 89 1005.6
20260506142039 54 23 3.0 8.0 0.00 0.06 0.02 88 1005.5
20260506141017 54 338 2.0 8.0 0.00 0.06 0.02 86 1005.6
20260506140017 54 270 1.0 4.0 0.00 0.07 0.02 87 1005.5
20260506135017 54 338 2.0 6.0 0.00 0.07 0.02 87 1005.5
20260506134017 55 23 3.0 8.0 0.00 0.07 0.02 88 1005.4
20260506133017 56 248 3.0 7.0 0.00 0.08 0.02 88 1005.6
20260506132017 54 338 4.0 9.0 0.00 0.08 0.02 90 1005.4
20260506131019 55 315 4.0 10.0 0.00 0.09 0.02 86 1005.4
20260506130017 56 270 2.0 6.0 0.00 0.09 0.02 84 1005.4
20260506125017 56 270 2.0 4.0 0.00 0.10 0.02 84 1005.3
20260506124017 56 225 2.0 8.0 0.00 0.12 0.02 85 1005.3
20260506123017 56 270 5.0 10.0 0.00 0.12 0.02 85 1005.2
20260506122017 57 270 4.0 9.0 0.00 0.12 0.02 83 1005.3
20260506121037 57 248 2.0 4.0 0.00 0.12 0.02 84 1005.2
20260506120017 56 158 4.0 8.0 0.00 0.12 0.02 85 1005.3
20260506115037 57 248 2.0 5.0 0.00 0.12 0.02 80 1005.2
20260506114017 57 225 3.0 6.0 0.00 0.12 0.02 80 1005.2
20260506113037 56 225 3.0 7.0 0.00 0.12 0.02 84 1005.3
20260506112019 56 203 3.0 7.0 0.00 0.12 0.02 83 1005.3
20260506111017 56 203 5.0 9.0 0.00 0.12 0.02 84 1005.2
20260506110037 56 158 5.0 9.0 0.00 0.12 0.02 82 1005.3
20260506105017 57 158 5.0 9.0 0.00 0.12 0.02 82 1005.4
20260506104017 56 158 3.0 7.0 0.00 0.12 0.02 83 1005.3
20260506103018 56 225 4.0 8.0 0.00 0.12 0.02 83 1005.3
20260506102017 56 158 5.0 9.0 0.00 0.12 0.02 83 1005.2
20260506101017 58 203 3.0 6.0 0.00 0.12 0.02 84 1005.2
20260506100037 57 180 5.0 9.0 0.00 0.12 0.02 82 1005.1
20260506095017 56 158 4.0 7.0 0.00 0.12 0.02 85 1005.0
20260506094018 54 180 3.0 8.0 0.00 0.12 0.02 89 1005.1
20260506093017 54 180 3.0 8.0 0.00 0.12 0.02 88 1005.0
20260506092019 54 203 4.0 7.0 0.00 0.12 0.02 88 1005.1
20260506091017 54 158 4.0 12.0 0.00 0.12 0.02 87 1005.1
20260506090017 54 158 5.0 10.0 0.00 0.12 0.02 86 1005.0
20260506085017 55 135 5.0 9.0 0.00 0.12 0.02 85 1004.8
20260506084016 55 158 5.0 10.0 0.00 0.12 0.02 86 1004.8
20260506083018 55 180 4.0 9.0 0.00 0.12 0.02 87 1004.8
20260506082037 55 203 4.0 7.0 0.00 0.12 0.02 88 1004.7
20260506081017 54 203 3.0 8.0 0.00 0.12 0.02 88 1004.7
20260506073017 54 158 5.0 10.0 0.00 0.12 0.02 88 1004.8
20260506072018 54 203 3.0 7.0 0.00 0.12 0.02 89 1004.8
20260506071017 55 225 4.0 9.0 0.00 0.12 0.02 89 1004.9
20260506062036 53 158 5.0 10.0 0.00 0.12 0.02 92 1004.7
20260506061017 53 158 4.0 8.0 0.00 0.12 0.02 93 1004.7
20260506051016 52 158 1.0 3.0 0.00 0.12 0.02 95 1004.6
20260506045016 51 158 2.0 6.0 0.00 0.12 0.02 95 1004.6
20260506044016 51 158 2.0 5.0 0.00 0.12 0.02 95 1004.7
20260506043016 51 180 1.0 3.0 0.00 0.12 0.02 95 1004.7
20260506042018 51 203 1.0 3.0 0.01 0.12 0.02 95 1004.7
20260506041018 51 158 2.0 6.0 0.01 0.12 0.02 95 1004.7
20260506040016 51 135 2.0 5.0 0.01 0.12 0.02 95 1004.7
20260506035016 51 135 2.0 4.0 0.01 0.12 0.02 94 1004.6
20260506034016 51 135 1.0 3.0 0.01 0.12 0.02 94 1004.7
20260506033018 50 203 1.0 3.0 0.01 0.12 0.02 94 1004.7
20260506032016 50 203 1.0 2.0 0.00 0.11 0.01 94 1004.7
20260506031036 50 203 1.0 3.0 0.00 0.11 0.01 94 1004.7
20260506030016 50 0.0 3.0 0.00 0.11 0.01 93 1004.7
20260506025016 50 0.0 3.0 0.00 0.11 0.01 93 1004.7
20260506024016 51 0.0 0.0 0.00 0.11 0.01 93 1004.9
20260506023017 51 0.0 0.0 0.00 0.11 0.01 93 1004.8
20260506022016 51 0.0 0.0 0.00 0.11 0.01 93 1004.9
20260506021016 52 0.0 1.0 0.00 0.11 0.01 94 1005.0
20260506020016 52 0.0 2.0 0.00 0.11 0.01 94 1005.2
20260506015036 52 0.0 0.0 0.00 0.11 0.01 94 1005.3
20260506014016 52 0.0 1.0 0.00 0.11 0.01 94 1005.4
20260506013016 52 0.0 0.0 0.00 0.11 0.01 94 1005.5
20260506012016 52 0.0 2.0 0.00 0.11 0.01 94 1005.5
20260506011036 52 225 1.0 4.0 0.00 0.11 0.01 94 1005.6
20260506010016 53 225 1.0 4.0 0.00 0.11 0.01 94 1005.8
20260506005016 53 225 1.0 3.0 0.00 0.11 0.01 94 1005.7
20260506004017 53 225 1.0 4.0 0.00 0.11 0.01 94 1005.9
20260506003016 53 203 1.0 4.0 0.00 0.11 0.01 94 1005.9